Regional Weather Roundup
Issued by NWS Binghamton, NY

Current Version | Previous Version | Text Only | Print | Product List | Glossary On
Versions: 1 2 3 4 5 6 7 8 9 10 11 12 13 14 15 16 17 18 19 20 21 22 23 24 25 26 27 28 29 30 31 32 33 34 35 36 37 38 39 40 41 42 43 44 45 46 47 48 49 50
000
ASUS41 KBGM 240810
RWRBGM

REGIONAL WEATHER ROUNDUP
NATIONAL WEATHER SERVICE BINGHAMTON NY
400 AM EDT FRI MAY 24 2019

Note: "fair" indicates few or no clouds below 12,000 feet with no
significant weather and/or obstructions to visibility.

* = Station(s) that does not report precipitation, such as rain,
snow, etc, also no thunder or fog.

NYZ009-015>018-022>025-036-037-044>046-055>057-062-240900
...Central New York...

CITY           SKY/WX    TMP DP  RH WIND       PRES   REMARKS
Binghamton     FAIR      55  46  71 NW12      29.88S
Cortland       FAIR      54  46  76 W7        29.89F
Dansville      FAIR      55  46  71 N7        29.97R
Elmira         FAIR      59  46  62 W9        29.93R
Endicott       SUNNY     61  48  63 NW8       29.89R
Ithaca         FAIR      55  47  74 NW16      29.90F
Hamilton       CLOUDY    55  45  67 NW13G21   29.85F
Hornell        CLEAR     55  45  67 NW13      30.00R
Monticello     FAIR      58  48  69 NW13G23   29.85S
Norwich        MOCLDY    55  45  67 NW5       29.86S
Oneonta        CLEAR     54  46  76 NW9G16    29.84R
Penn Yan       FAIR      58  45  62 W10       29.93S
Rome           CLOUDY    56  48  74 NW9       29.85R
Seneca Falls   SUNNY     57  46  67 W10G18    29.91S
Sidney         MOCLDY    55  46  71 W6        29.86F
Skaneateles    CLOUDY    57  48  72 W8G15     29.89S
Syracuse       MOCLDY    59  47  64 W15G26    29.86S
$$

PAZ038>040-043-044-047-048-072-240900
...Northeast Pennsylvania...

CITY           SKY/WX    TMP DP  RH WIND       PRES   REMARKS
Scranton       FAIR      64  49  57 NW6       29.87S
Towanda        SUNNY     63  46  55 W7G16     29.92R
$$
&&
KEY
WCI = Wind Chill Index
VSB = Visibility
HX  = Heat Index
$$



USA.gov is the U.S. government's official web portal to all federal, state and local government web resources and services.